Location: Anumalkud?ru
(16.4847°N, 80.6636°E)
Time: 11:49:50
(UTC+00:00)

Meteor 1-28 Rocket - Pass Details

Date: 11 April 2026
Orbit: 420 x 430 km, 97.6° (Epoch: 20 May)

Event Time Altitude Azimuth Distance (km) Brightness Sun altitude
Rises 23:43:56 0° 183° (S) 2,395 6.4 -10.4°
Reaches altitude 10° 23:46:02 10° 191° (SSW) 1,529 5.4 -9.9°
Maximum altitude 23:49:04 36° 260° (W) 699 3.3 -9.2°
Drops below altitude 10° 23:52:07 10° 329° (NNW) 1,529 5.4 -8.5°
Sets 23:54:14 0° 338° (NNW) 2,395 6.5 -8.0°
